Regional Weather Roundup
Issued by NWS

Home | Current Version | Previous Version | Graphics & Text | Print | Product List | Glossary On
Versions: 1 2 3 4 5 6 7 8 9 10 11 12 13 14 15 16 17 18 19 20 21 22 23 24 25 26 27 28 29 30 31 32 33 34 35 36 37 38 39 40 41 42 43 44 45 46 47 48 49 50
000
ASUS44 KMEG 251810
RWRTN
TENNESSEE HOURLY STATE WEATHER ROUNDUP
NATIONAL WEATHER SERVICE MEMPHIS TN
100 PM CDT TUE JUL 25 2017

TNZ002-004-019-021-049-052-054-088>092-251900-
WEST TENNESSEE

CITY           SKY/WX    TMP DP  RH WIND       PRES   REMARKS
MEMPHIS INTL   MOSUNNY   94  76  55 W6        30.08S HX 106
NWS MEMPHIS      N/A     92 N/A N/A MISG        N/A
JACKSON        MOSUNNY   91  76  61 SW5       30.09S HX 103
SOMERVILLE       N/A     91  75  59 VRB5      30.08S HX 102
COVINGTON      CLOUDY    90  77  66 S7        30.08S HX 102
UNION CITY     SUNNY     90  75  62 SE6       30.06F HX 100
BOLIVAR        MOSUNNY   91  73  55 VRB3      30.08F HX 100
PARIS          MOSUNNY   90  73  58 CALM      30.08F HX  98
HUNTINGDON     MOSUNNY   91  75  59 VRB5      30.08S HX 102
SELMER         PTSUNNY   90  73  58 CALM      30.09F HX  98
SAVANNAH       MOSUNNY   91  73  55 VRB5      30.08F HX 100
$$

TNZ008-025-027-028-033-062-065-066-251900-
NORTH MIDDLE TENNESSEE

CITY           SKY/WX    TMP DP  RH WIND       PRES   REMARKS
NASHVILLE      PTSUNNY   93  68  43 E7        30.10S HX  97
PORTLAND       PTSUNNY   88  75  66 NE5       30.10F HX  97
CLARKSVILLE    PTSUNNY   90  72  55 VRB3      30.09S HX  97
SMYRNA         MOSUNNY   93  74  53 NE5       30.10F HX 103
COOKEVILLE     MOSUNNY   90  72  55 VRB3      30.12S HX  96
GALLATIN       MOSUNNY   91  72  52 CALM      30.12S HX  98
CROSSVILLE     MOSUNNY   85  65  51 N9        30.18S
$$

TNZ061-075-076-078-094-096-097-251900-
SOUTH MIDDLE TENNESSEE

CITY           SKY/WX    TMP DP  RH WIND       PRES   REMARKS
FAYETTEVILLE   MOSUNNY   88  73  62 CALM      30.11F HX  96
TULLAHOMA      PTSUNNY   88  72  58 S3        30.14S HX  94
WINCHESTER     SUNNY     90  72  55 VRB5      30.11F HX  96
MCMINNVILLE    MOSUNNY   90  73  58 CALM      30.12F HX  98
COLUMBIA       PTSUNNY   90  72  55 SW6       30.08F HX  96
SHELBYVILLE    MOSUNNY   90  73  58 VRB3      30.11S HX  98
$$

TNZ017-018-042-046-047-251900-
NORTHEAST TENNESSEE

CITY           SKY/WX    TMP DP  RH WIND       PRES   REMARKS
TRI CITIES     MOSUNNY   88  66  48 NW7       30.14F HX  90
ELIZABETHTON   PTSUNNY   86  66  51 VRB3      30.15S
$$

TNZ012-013-036-069-073-074-251900-
CENTRAL EAST TENNESSEE

CITY           SKY/WX    TMP DP  RH WIND       PRES   REMARKS
KNOXVILLE      MOSUNNY   90  66  45 VRB5      30.10F HX  92
OAK RIDGE      PTSUNNY   88  69  53 E3        30.12F HX  92
DOWNTOWN KNOXV MOSUNNY   91  72  52 VRB3      30.09F HX  98
GATLINBURG     MOSUNNY   91  64  40 W6        30.10F HX  93
MORRISTOWN     SUNNY     90  70  51 NW9       30.12S HX  95
JACKSBORO      SUNNY     90  66  45 CALM      30.16R HX  92
$$

TNZ083-085-099-251900-
SOUTHEAST TENNESSEE

CITY           SKY/WX    TMP DP  RH WIND       PRES   REMARKS
CHATTANOOGA    MOSUNNY   91  71  51 VRB7      30.10F HX  97
DAYTON         CLEAR     90  75  62 VRB5      30.09F HX 100
$$

SKY/WX REPORTED AS FAIR MEANS FEW OR NO CLOUDS BELOW
12 THOUSAND FEET.





USA.gov is the U.S. government's official web portal to all federal, state and local government web resources and services.